Location: Bush Observatory
(40.2653°N, 94.3194°W)
Time: 23:15:36
(UTC-06:00)

Daily predictions for brighter satellites

Satellite Brightness Start Highest point End
(mag) Time Altitude Azimuth Time Altitude Azimuth Time Altitude Azimuth
Cosmos 1812 3.4 18:23:28 10° NNE 18:27:01 33° ENE 18:30:32 10° SE
Ariane Rocket 4.2 18:22:19 10° S 18:27:14 49° W 18:32:12 10° NNW
Cosmos 2084 Rocket 4.4 18:25:15 10° SW 18:29:32 49° NW 18:33:37 10° NNE
ALOS 2.3 18:25:13 10° SSE 18:29:53 83° ENE 18:34:35 10° N
MONITOR-E 4.0 18:26:58 10° SSE 18:29:57 69° ENE 18:32:59 10° N
CENTAUR R/B 2.9 18:25:09 10° S 18:30:35 40° ESE 18:36:42 10° NE
SKYMED 2 3.7 18:27:57 10° N 18:32:18 84° WNW 18:36:39 10° SSW
Cosmos 44 3.8 18:30:34 10° NNW 18:35:23 44° NE 18:40:23 10° SE
SL-8 R/B 3.7 18:30:42 10° SW 18:35:28 75° SE 18:40:15 10° ENE
Cosmos 2333 Rocket 3.3 18:30:14 10° NW 18:35:40 49° WSW 18:41:04 10° S
Cosmos 2082 3.7 18:32:30 10° SSW 18:38:06 82° ESE 18:43:47 10° NNE
Cosmos 2056 Rocket 4.2 18:35:36 10° NNW 18:40:58 64° WSW 18:46:19 10° S
Aureole 3 4.1 18:36:52 10° S 18:42:52 61° E 18:47:36 10° NNE
Resurs 01 Rocket 3.5 18:42:38 11° ENE 18:43:22 11° ENE 18:44:39 10° NE
Meteor 1-25 Rocket 4.4 18:40:23 10° SSE 18:45:40 49° E 18:51:01 10° NNE
Lacrosse 5 2.8 18:40:50 10° NW 18:45:44 51° SW 18:50:37 10° SSE
Cosmos 1452 Rocket 3.6 18:42:00 10° N 18:47:12 57° ENE 18:52:21 10° SSE
SPOT 3 Rocket 3.5 18:44:04 10° SSE 18:49:15 80° ENE 18:54:29 10° NNW
Iridium 4 Rocket 3.7 18:47:55 10° NNE 18:52:29 39° E 18:56:40 10° SSE
Cosmos 1048 Rocket 4.5 18:47:39 10° S 18:52:34 39° ESE 18:57:28 10° NE
Cosmos 158 Rocket 3.9 18:47:53 10° S 18:52:40 58° ESE 18:57:27 10° NNE
Cosmos 1437 Rocket 3.9 18:50:02 10° SE 18:53:18 24° E 18:56:37 10° NE
EO 1 Del DPAF 3.2 18:51:40 10° NNE 18:55:31 87° ESE 18:59:19 10° SSW
Gbstr 26 Del rocket 4.3 18:55:27 10° S 18:57:55 17° SE 18:58:46 16° ESE
COSMOS 2455 4.3 18:56:26 10° SE 18:59:33 15° ESE 18:59:33 15° ESE
ATLAS 3B R/B 4.4 18:53:26 10° WSW 18:59:45 31° NW 19:05:50 10° NNE
Cosmos 405 3.8 18:58:22 10° SSW 19:01:48 53° WNW 19:05:15 10° N
Cosmos 1378 Rocket 3.5 19:01:41 10° N 19:06:03 60° E 19:10:25 10° SSE
Cosmos 1420 Rocket 3.9 19:02:31 10° NNW 19:07:48 71° ENE 19:13:05 10° SSE
Cosmos 1782 Rocket 3.9 19:08:33 10° SSE 19:12:45 43° E 19:16:57 10° NNE
Sich 1 Rocket 3.6 19:09:39 10° S 19:14:06 61° E 19:18:31 10° NNE
FengYun 1-2 T 4.2 19:11:13 10° SSE 19:16:44 89° WSW 19:22:15 10° NNW
Cosmos 1464 Rocket 3.9 19:14:51 10° N 19:21:00 87° E 19:27:09 10° S
OAO 2 Rocket 4.0 19:17:44 10° WSW 19:22:19 39° S 19:24:26 26° ESE
Cosmos 1943 4.5 19:22:47 10° N 19:27:03 21° NE 19:27:09 21° NE
Okean 2 Rocket 3.4 19:26:13 10° SSE 19:30:18 40° E 19:34:25 10° NNE
FALCON 9 R/B 4.4 19:25:55 10° W 19:33:31 67° S 19:52:01 23° ESE
ARGOS Delta rocket 3.7 19:28:55 10° NNE 19:33:45 63° E 19:38:17 10° S
SJ-6B 2.6 19:30:38 10° SSE 19:34:23 86° ENE 19:38:14 10° NNW
SeaSat 1 2.4 19:32:53 24° SE 19:35:50 64° ENE 19:40:44 10° NNW
Tiangong 2 2.6 19:34:31 10° W 19:37:22 30° SSW 19:38:03 27° S
FREGAT/IRIS 4.1 19:35:12 10° SSW 19:37:57 36° W 19:40:45 10° NNW
Envisat 2.9 19:34:02 10° SSE 19:39:04 69° ENE 19:44:08 10° N
Cosmos 2227 Rocket 4.3 19:35:15 10° WSW 19:39:55 26° NW 19:44:37 10° N
Thor Agena Rocket 3.4 19:36:22 10° NNE 19:41:29 82° ESE 19:46:31 10° SSW
USA 215 3.2 19:37:21 18° NE 19:42:32 87° SE 19:49:04 10° SW
HJ-1C 4.2 19:41:03 10° S 19:44:24 53° W 19:47:46 10° NNW
SL-16 R/B 2.8 19:39:47 10° NNW 19:45:20 56° WSW 19:50:49 10° S
Cosmos 44 Rocket 3.8 19:40:57 10° NW 19:45:56 61° WSW 19:50:13 14° SSE
USA 32 4.3 19:42:10 10° SSW 19:47:21 68° W 19:52:35 10° N
Cosmos 1269 Rocket 4.0 19:43:37 10° SSW 19:48:54 83° WNW 19:54:13 10° NNE
Okean 1 3.8 19:45:42 10° NNW 19:49:38 58° W 19:53:31 10° S
Meteor 1-13 Rocket 4.1 19:45:18 10° N 19:50:47 60° ENE 19:52:47 37° SE
Cosmos 2297 Rocket 4.4 19:49:27 10° WSW 19:53:55 24° NW 19:58:26 10° N
Cosmos 1110 Rocket 4.1 19:49:25 10° N 19:54:36 53° ENE 19:54:46 53° ENE
ERS-2 4.3 19:53:03 10° SSW 19:56:13 27° W 19:59:25 10° NW
Cosmos 494 Rocket 4.1 19:51:16 10° S 19:55:48 52° SE 19:55:48 52° SE
Cosmos 2034 Rocket 4.3 19:50:06 10° NNW 19:56:26 68° W 20:02:44 10° S
Cosmos 921 Rocket 3.5 19:53:17 10° NNW 19:57:46 63° WSW 20:00:38 21° S
CZ-2D R/B 4.0 19:57:55 14° S 20:01:07 52° W 20:04:56 10° NNW
Cosmos 1603 3.5 19:58:16 10° NNW 20:03:55 69° ENE 20:04:35 63° ESE
Cosmos 2346 Rocket 4.3 19:57:56 10° S 20:04:09 82° E 20:10:20 10° N
Resurs 1-3 3.9 20:08:18 57° N 20:08:18 57° N 20:11:49 10° N
Cosmos 1634 Rocket 3.9 20:03:43 10° N 20:09:50 62° E 20:10:07 61° E
USA 267 3.6 20:14:32 44° NE 20:15:14 45° NNE 20:21:23 10° NW
Resurs 01 Rocket 2.2 20:20:12 52° NW 20:20:12 52° NW 20:23:39 10° NNW
Cosmos 1975 Rocket 4.3 20:16:06 10° NNW 20:20:15 40° W 20:23:53 13° SSW
CENTAUR R/B 3.7 20:15:31 10° WSW 20:21:13 39° NW 20:27:42 10° NNE
CZ-4C R/B 3.3 20:16:17 10° NNW 20:22:50 43° NE 20:22:50 43° NE
Cosmos 2263 Rocket 4.3 20:18:28 10° S 20:19:05 13° S 20:19:05 13° S
CZ-3C R/B 4.2 20:21:29 10° SSW 20:25:25 22° SSE 20:25:25 22° SSE
Cosmos 1331 Rocket 4.3 20:22:12 10° NNW 20:26:40 63° NNW 20:26:40 63° NNW
Spot 2 Rocket 3.9 20:29:59 59° NNW 20:29:59 59° NNW 20:34:09 10° NNW
Geosat 4.5 20:31:24 51° NNW 20:32:11 58° WNW 20:37:06 10° SW
Meteor 1-11 Rocket 4.1 20:30:42 10° SSW 20:36:11 60° WNW 20:41:49 10° N
Meteor 2-4 Rocket 4.0 20:30:50 10° NNW 20:36:35 67° W 20:37:03 64° SW
COSMOS 2455 3.5 20:38:41 10° SSW 20:42:50 47° SW 20:42:50 47° SW
USA 215 4.5 21:24:42 34° NNW 21:25:04 34° NNW 21:30:49 10° W
CZ-4C R/B 4.5 22:04:46 10° NW 22:08:03 28° WNW 22:08:03 28° WNW
